TimeEST,TemperatureF,Dew PointF,Humidity,Sea Level PressureIn,VisibilityMPH,Wind Direction,Wind SpeedMPH,Gust SpeedMPH,PrecipitationIn,Events,Conditions,WindDirDegrees,DateUTC
12:56 AM,60.1,60.1,100,30.14,8.0,SSE,6.9,-,N/A,,Mostly Cloudy,150,2013-12-21 05:56:00
1:56 AM,59.0,59.0,100,30.14,9.0,Calm,Calm,-,N/A,,Mostly Cloudy,0,2013-12-21 06:56:00
2:56 AM,59.0,59.0,100,30.14,9.0,Calm,Calm,-,N/A,,Mostly Cloudy,0,2013-12-21 07:56:00
3:56 AM,60.1,59.0,96,30.13,10.0,SSE,4.6,-,N/A,,Mostly Cloudy,160,2013-12-21 08:56:00
4:56 AM,57.9,57.0,97,30.13,10.0,Calm,Calm,-,N/A,,Scattered Clouds,0,2013-12-21 09:56:00
5:56 AM,57.0,57.0,100,30.14,10.0,Calm,Calm,-,N/A,,Scattered Clouds,0,2013-12-21 10:56:00
6:56 AM,60.1,60.1,100,30.14,10.0,SSE,5.8,-,N/A,,Scattered Clouds,150,2013-12-21 11:56:00
7:56 AM,60.1,60.1,100,30.15,10.0,SE,5.8,-,N/A,,Scattered Clouds,140,2013-12-21 12:56:00
8:56 AM,69.1,66.9,93,30.15,10.0,South,9.2,-,N/A,,Scattered Clouds,170,2013-12-21 13:56:00
9:56 AM,75.0,68.0,79,30.15,10.0,SSE,13.8,-,N/A,,Scattered Clouds,160,2013-12-21 14:56:00
10:56 AM,78.1,66.0,66,30.14,10.0,South,13.8,-,N/A,,Scattered Clouds,190,2013-12-21 15:56:00
11:56 AM,80.1,64.9,60,30.12,10.0,South,11.5,-,N/A,,Mostly Cloudy,170,2013-12-21 16:56:00
12:56 PM,81.0,62.1,52,30.08,10.0,SSE,10.4,-,N/A,,Mostly Cloudy,160,2013-12-21 17:56:00
1:56 PM,82.9,61.0,47,30.05,10.0,South,16.1,-,N/A,,Scattered Clouds,180,2013-12-21 18:56:00
2:56 PM,82.9,61.0,47,30.04,10.0,South,11.5,-,N/A,,Scattered Clouds,180,2013-12-21 19:56:00
3:56 PM,82.0,64.9,56,30.04,10.0,SSE,8.1,-,N/A,,Partly Cloudy,150,2013-12-21 20:56:00
4:56 PM,78.1,66.9,68,30.06,10.0,SE,9.2,-,N/A,,Partly Cloudy,130,2013-12-21 21:56:00
5:56 PM,75.0,66.0,73,30.07,10.0,SE,10.4,-,N/A,,Partly Cloudy,130,2013-12-21 22:56:00
6:56 PM,72.0,66.9,84,30.09,10.0,SE,9.2,-,N/A,,Partly Cloudy,140,2013-12-21 23:56:00
7:56 PM,71.1,66.9,87,30.09,10.0,SE,9.2,-,N/A,,Scattered Clouds,140,2013-12-22 00:56:00
8:56 PM,71.1,68.0,90,30.10,10.0,SSE,6.9,-,N/A,,Partly Cloudy,150,2013-12-22 01:56:00
9:56 PM,72.0,69.1,91,30.09,10.0,SSE,10.4,-,N/A,,Clear,160,2013-12-22 02:56:00
10:56 PM,72.0,69.1,91,30.09,10.0,SSE,9.2,-,N/A,,Clear,160,2013-12-22 03:56:00
11:56 PM,72.0,69.1,91,30.09,10.0,South,11.5,-,N/A,,Clear,170,2013-12-22 04:56:00